TimeEDT,TemperatureF,Dew PointF,Humidity,Sea Level PressureIn,VisibilityMPH,Wind Direction,Wind SpeedMPH,Gust SpeedMPH,PrecipitationIn,Events,Conditions,WindDirDegrees,DateUTC
12:35 AM,33.8,30.2,87,30.19,10.0,SSW,3.5,-,N/A,,Clear,200,2012-10-09 04:35:00
1:15 AM,32.0,28.4,87,30.19,3.0,Calm,Calm,-,N/A,,Scattered Clouds,0,2012-10-09 05:15:00
1:35 AM,32.0,30.2,93,30.19,4.0,South,4.6,-,N/A,,Clear,170,2012-10-09 05:35:00
1:55 AM,33.8,30.2,87,30.19,9.0,South,3.5,-,N/A,,Mostly Cloudy,180,2012-10-09 05:55:00
2:15 AM,33.8,30.2,87,30.19,9.0,Calm,Calm,-,N/A,,Mostly Cloudy,0,2012-10-09 06:15:00
2:55 AM,33.8,30.2,87,30.18,10.0,Calm,Calm,-,N/A,,Clear,0,2012-10-09 06:55:00
3:15 AM,32.0,30.2,93,30.18,1.0,Calm,Calm,-,N/A,,Clear,0,2012-10-09 07:15:00
3:55 AM,32.0,30.2,93,30.16,3.0,South,4.6,-,N/A,,Clear,170,2012-10-09 07:55:00
4:15 AM,32.0,30.2,93,30.16,5.0,South,4.6,-,N/A,,Clear,170,2012-10-09 08:15:00
4:35 AM,32.0,30.2,93,30.16,3.0,South,4.6,-,N/A,,Clear,170,2012-10-09 08:35:00
4:55 AM,32.0,30.2,93,30.16,5.0,South,3.5,-,N/A,,Clear,170,2012-10-09 08:55:00
5:15 AM,32.0,30.2,93,30.17,5.0,South,3.5,-,N/A,,Clear,180,2012-10-09 09:15:00
5:35 AM,30.2,28.4,93,30.16,1.0,South,4.6,-,N/A,,Clear,170,2012-10-09 09:35:00
5:55 AM,30.2,28.4,93,30.16,0.5,South,3.5,-,N/A,,Unknown,170,2012-10-09 09:55:00
6:15 AM,30.2,30.2,100,30.17,3.0,South,3.5,-,N/A,,Clear,190,2012-10-09 10:15:00
6:35 AM,30.2,28.4,93,30.18,0.5,South,4.6,-,N/A,,Unknown,180,2012-10-09 10:35:00
6:55 AM,30.2,28.4,93,30.17,1.0,SSE,4.6,-,N/A,,Clear,160,2012-10-09 10:55:00
7:15 AM,30.2,30.2,100,30.18,1.8,South,4.6,-,N/A,,Clear,170,2012-10-09 11:15:00
7:35 AM,30.2,28.4,93,30.17,0.5,South,5.8,-,N/A,,Unknown,170,2012-10-09 11:35:00
7:55 AM,30.2,30.2,100,30.17,1.0,South,5.8,-,N/A,,Clear,170,2012-10-09 11:55:00
8:15 AM,32.0,30.2,93,30.18,2.0,South,5.8,-,N/A,,Clear,170,2012-10-09 12:15:00
8:35 AM,33.8,30.2,87,30.17,3.0,South,4.6,-,N/A,,Clear,170,2012-10-09 12:35:00
8:55 AM,33.8,32.0,93,30.19,6.0,South,5.8,-,N/A,,Clear,170,2012-10-09 12:55:00
9:15 AM,35.6,33.8,93,30.19,10.0,South,4.6,-,N/A,,Clear,190,2012-10-09 13:15:00
9:35 AM,37.4,35.6,93,30.19,10.0,South,3.5,-,N/A,,Clear,180,2012-10-09 13:35:00
9:55 AM,39.2,35.6,87,30.18,10.0,South,5.8,-,N/A,,Clear,170,2012-10-09 13:55:00
10:15 AM,41.0,37.4,87,30.17,10.0,SSE,5.8,-,N/A,,Clear,160,2012-10-09 14:15:00
10:35 AM,42.8,37.4,81,30.17,10.0,South,6.9,-,N/A,,Clear,180,2012-10-09 14:35:00
10:55 AM,44.6,37.4,76,30.16,10.0,SSW,6.9,-,N/A,,Mostly Cloudy,200,2012-10-09 14:55:00
11:15 AM,44.6,37.4,76,30.16,10.0,South,6.9,-,N/A,,Mostly Cloudy,180,2012-10-09 15:15:00
11:35 AM,46.4,37.4,71,30.15,10.0,SW,9.2,-,N/A,,Mostly Cloudy,230,2012-10-09 15:35:00
11:55 AM,46.4,37.4,71,30.15,10.0,SSW,5.8,-,N/A,,Overcast,210,2012-10-09 15:55:00
12:15 PM,46.4,37.4,71,30.14,10.0,SW,5.8,-,N/A,,Mostly Cloudy,220,2012-10-09 16:15:00
12:35 PM,48.2,37.4,66,30.14,10.0,SW,8.1,-,N/A,,Partly Cloudy,220,2012-10-09 16:35:00
12:55 PM,50.0,37.4,62,30.13,10.0,SSW,9.2,-,N/A,,Partly Cloudy,210,2012-10-09 16:55:00
1:15 PM,51.8,37.4,58,30.11,10.0,South,9.2,16.1,N/A,,Partly Cloudy,170,2012-10-09 17:15:00
1:35 PM,51.8,35.6,54,30.10,10.0,SSW,9.2,-,N/A,,Clear,200,2012-10-09 17:35:00
1:55 PM,53.6,37.4,54,30.08,10.0,South,9.2,-,N/A,,Partly Cloudy,190,2012-10-09 17:55:00
2:15 PM,53.6,35.6,51,30.07,10.0,South,9.2,16.1,N/A,,Clear,170,2012-10-09 18:15:00
2:35 PM,53.6,37.4,54,30.07,10.0,SSE,6.9,-,N/A,,Clear,150,2012-10-09 18:35:00
2:55 PM,55.4,37.4,51,30.06,10.0,SSW,9.2,-,N/A,,Clear,210,2012-10-09 18:55:00
3:15 PM,55.4,37.4,51,30.05,10.0,SSW,10.4,-,N/A,,Partly Cloudy,200,2012-10-09 19:15:00
3:35 PM,55.4,37.4,51,30.05,10.0,South,10.4,-,N/A,,Partly Cloudy,180,2012-10-09 19:35:00
3:55 PM,55.4,37.4,51,30.04,10.0,South,11.5,16.1,N/A,,Partly Cloudy,180,2012-10-09 19:55:00
4:15 PM,57.2,37.4,48,30.03,10.0,South,8.1,-,N/A,,Clear,190,2012-10-09 20:15:00
4:35 PM,55.4,37.4,51,30.03,10.0,South,8.1,-,N/A,,Clear,180,2012-10-09 20:35:00
4:55 PM,55.4,37.4,51,30.03,10.0,SSW,10.4,-,N/A,,Clear,210,2012-10-09 20:55:00
5:15 PM,55.4,37.4,51,30.03,10.0,South,9.2,-,N/A,,Clear,170,2012-10-09 21:15:00
5:35 PM,55.4,35.6,47,30.03,10.0,South,10.4,-,N/A,,Clear,190,2012-10-09 21:35:00
5:55 PM,55.4,35.6,47,30.03,10.0,SSW,8.1,16.1,N/A,,Clear,200,2012-10-09 21:55:00
6:15 PM,53.6,37.4,54,30.02,10.0,SSW,8.1,-,N/A,,Clear,210,2012-10-09 22:15:00
6:35 PM,53.6,37.4,54,30.02,10.0,SSW,8.1,-,N/A,,Clear,200,2012-10-09 22:35:00
6:55 PM,51.8,37.4,58,30.02,10.0,SSW,6.9,-,N/A,,Clear,200,2012-10-09 22:55:00
7:15 PM,51.8,35.6,54,30.01,10.0,SSW,8.1,-,N/A,,Clear,200,2012-10-09 23:15:00
7:35 PM,50.0,37.4,62,30.01,10.0,SSW,6.9,-,N/A,,Clear,200,2012-10-09 23:35:00
7:55 PM,48.2,37.4,66,30.02,10.0,SSW,8.1,-,N/A,,Clear,200,2012-10-09 23:55:00
8:15 PM,48.2,37.4,66,30.01,10.0,South,9.2,-,N/A,,Clear,190,2012-10-10 00:15:00
8:35 PM,48.2,37.4,66,30.00,10.0,South,8.1,-,N/A,,Clear,190,2012-10-10 00:35:00
8:55 PM,48.2,37.4,66,30.00,10.0,South,9.2,-,N/A,,Clear,190,2012-10-10 00:55:00
9:15 PM,46.4,37.4,71,30.00,10.0,South,8.1,-,N/A,,Clear,190,2012-10-10 01:15:00
9:35 PM,46.4,37.4,71,29.99,10.0,SSW,6.9,-,N/A,,Clear,200,2012-10-10 01:35:00
9:55 PM,46.4,37.4,71,29.99,10.0,South,6.9,-,N/A,,Clear,190,2012-10-10 01:55:00
10:15 PM,44.6,37.4,76,29.99,10.0,South,8.1,-,N/A,,Clear,190,2012-10-10 02:15:00
10:35 PM,46.4,37.4,71,29.99,10.0,SSW,8.1,-,N/A,,Clear,200,2012-10-10 02:35:00
10:55 PM,44.6,37.4,76,29.99,10.0,South,8.1,-,N/A,,Clear,190,2012-10-10 02:55:00
11:15 PM,44.6,37.4,76,29.98,10.0,South,6.9,-,N/A,,Clear,190,2012-10-10 03:15:00
11:35 PM,44.6,37.4,76,29.98,10.0,South,6.9,-,N/A,,Clear,180,2012-10-10 03:35:00
11:55 PM,42.8,37.4,81,29.97,10.0,South,8.1,-,N/A,,Clear,180,2012-10-10 03:55:00